Location: Chippewa Lake
(41.0698°N, 81.9010°W)
Time: 02:11:40
(UTC+00:00)

Cosmos 1538 Rocket - Pass Details

Date: 09 May 2021
Orbit: 752 x 792 km, 74.0° (Epoch: 24 June)

Event Time Altitude Azimuth Distance (km) Brightness Sun altitude
Rises 02:56:32 0° 345° (NNW) 3,296 8.4 -22.3°
Reaches altitude 10° 02:59:02 10° 351° (N) 2,360 7.4 -22.6°
Maximum altitude 03:04:14 50° 66° (ENE) 999 4.4 -23.2°
Enters shadow 03:04:59 46° 93° (E) 1,044 4.4 -23.2°
